Atlanta Dekalb, GA

6:11 PM EDT on June 20, 2018 (GMT -0400)
Dekalb-Peachtree

Weather History for KPDK - May, 2015

Change the Weather History Date:

Friday, May 15, 2015

  Actual Average Record
Temperature  
Mean Temperature 74 °F 69 °F  
Max Temperature 81 °F 80 °F 89 °F (1998)
Min Temperature 66 °F 58 °F 32 °F (1997)
Cooling Degree Days 9 5  
Month to date cooling degree days 91 54  
Year to date cooling degree days 142 103  
Growing Degree Days 23 (Base 50)    
Moisture  
Dew Point 61 °F    
Average Humidity 69    
Maximum Humidity 87    
Minimum Humidity 50    
Precipitation  
Precipitation 0.00 in 0.13 in 1.75 in (2005)
Month to date precipitation T 2.04  
Year to date precipitation 14.17 20.48  
Sea Level Pressure  
Sea Level Pressure 30.21 in    
Wind  
Wind Speed 5 mph (SE)    
Max Wind Speed 12 mph    
Max Gust Speed 17 mph    
Visibility 7 miles    
Events      
T = Trace of Precipitation, MM = Missing Value Source: NWS Daily Summary

Daily Weather History Graph

Daily Weather History Graph

Search for Another Location

Airport or City:

Astronomy

May. 15, 2015 Rise Set
Actual Time 6:36 AM EDT 8:31 PM EDT
Civil Twilight 6:08 AM EDT 8:58 PM EDT
Nautical Twilight 5:35 AM EDT 9:32 PM EDT
Astronomical Twilight 4:59 AM EDT 10:08 PM EDT
Moon 4:53 AM EDT (5/15) 5:58 PM EDT (5/15)
Length of Visible Light 14h 50m
Length of Day
13h 55m
Waning Crescent, 8% of the Moon is Illuminated
May 15
Waning Crescent
May 18
New
May 25
First Quarter
Jun 2
Full
Jun 9
Last Quarter

Hourly Weather History & Observations

Time (EDT) Temp. Heat Index Dew Point Humidity Pressure Visibility Wind Dir Wind Speed Gust Speed Precip Events Conditions
12:53 AM 72.0 °F - 59.0 °F 64% 30.20 in 8.0 mi Variable 4.6 mph - N/A   Clear
1:53 AM 71.6 °F - 59.0 °F 64% 30.25 in 8.0 mi East 3.5 mph - N/A   Clear
2:53 AM 70.0 °F - 59.0 °F 68% 30.20 in 8.0 mi East 3.5 mph - N/A   Clear
3:53 AM 69.1 °F - 60.1 °F 73% 30.19 in 8.0 mi Variable 4.6 mph - N/A   Partly Cloudy
4:53 AM 68.0 °F - 60.1 °F 76% 30.19 in 8.0 mi ESE 3.5 mph - N/A   Clear
5:53 AM 66.9 °F - 60.1 °F 79% 30.21 in 8.0 mi ESE 3.5 mph - N/A   Scattered Clouds
6:53 AM 66.9 °F - 61.0 °F 81% 30.23 in 6.0 mi Variable 3.5 mph - N/A   Haze
7:53 AM 66.0 °F - 62.1 °F 87% 30.25 in 5.0 mi Calm Calm - N/A   Mostly Cloudy
8:53 AM 69.1 °F - 63.0 °F 81% 30.25 in 5.0 mi Variable 6.9 mph - N/A   Haze
9:42 AM 70.0 °F - 63.0 °F 78% 30.30 in 6.0 mi SE 6.9 mph - N/A   Haze
9:53 AM 71.1 °F - 63.0 °F 75% 30.26 in 6.0 mi SSE 5.8 mph - N/A   Haze
10:53 AM 73.9 °F - 62.1 °F 66% 30.26 in 7.0 mi South 6.9 mph - N/A   Partly Cloudy
11:53 AM 78.1 °F - 62.1 °F 58% 30.25 in 7.0 mi SE 8.1 mph - N/A   Scattered Clouds
12:53 PM 79.0 °F - 61.0 °F 54% 30.25 in 7.0 mi South 8.1 mph - N/A   Mostly Cloudy
1:53 PM 80.1 °F 81.1 °F 61.0 °F 52% 30.22 in 8.0 mi SSE 8.1 mph - N/A   Mostly Cloudy
2:53 PM 77.0 °F - 61.0 °F 58% 30.21 in 7.0 mi SSE 9.2 mph - N/A   Overcast
3:53 PM 77.0 °F - 61.0 °F 58% 30.19 in 7.0 mi Variable 5.8 mph - N/A   Overcast
4:53 PM 79.0 °F - 61.0 °F 54% 30.17 in 7.0 mi SE 9.2 mph - N/A   Overcast
5:53 PM 77.0 °F - 60.1 °F 56% 30.16 in 7.0 mi SE 8.1 mph - N/A   Scattered Clouds
6:53 PM 77.0 °F - 57.9 °F 52% 30.16 in 8.0 mi SSE 10.4 mph - N/A   Clear
7:53 PM 75.9 °F - 60.1 °F 58% 30.17 in 7.0 mi SE 5.8 mph - N/A   Mostly Cloudy
8:53 PM 73.0 °F - 61.0 °F 66% 30.17 in 8.0 mi Calm Calm - N/A   Clear
9:53 PM 70.0 °F - 62.1 °F 76% 30.19 in 8.0 mi Calm Calm - N/A   Clear
10:53 PM 70.0 °F - 62.1 °F 76% 30.20 in 8.0 mi Calm Calm - N/A   Clear
11:53 PM 70.0 °F - 62.1 °F 76% 30.20 in 7.0 mi Calm Calm - N/A   Clear